Wetbulb
64.83 65.64 65.91 65.67 65.24 64.13 62.59 61.25 60.58 60.36 60.25 60.18 60.73 61.47 62.18 62.89 63.64 64.09 64.40 63.77 64.85 66.73 66.73 66.06 65.15 64.12 63.57 63.87 63.95 62.48 61.93 61.97 61.21 60.99 60.43 60.96 61.25 60.17 59.65 60.07 60.26 60.12 59.85
64.39 64.93 64.57 64.56 64.43 63.28 61.69 61.46 60.52 59.80 59.46 59.81 60.94 62.15 61.99 62.09 63.05 63.53 64.16 63.97 63.05 64.65 65.87 65.47 64.43 64.14 63.65 63.64 63.42 62.18 61.32 61.15 61.31 60.86 60.32 60.24 59.76 59.57 60.35 60.34 59.90 59.66 59.44
63.85 64.01 64.43 63.69 63.60 63.05 61.22 60.40 59.68 59.78 59.06 59.88 59.51 60.67 61.49 61.75 62.24 63.54 63.35 63.29 62.97 61.99 63.13 64.51 64.38 64.06 63.67 64.04 62.96 62.04 61.64 61.20 61.52 60.94 60.51 60.13 59.87 59.51 59.86 59.92 59.54 59.58 59.44
63.82 63.31 63.32 63.19 62.51 62.73 62.26 60.72 60.87 60.60 60.86 60.34 58.53 59.50 60.54 61.10 61.64 62.80 62.98 62.76 62.32 62.04 61.59 62.54 63.24 63.84 63.53 64.04 62.96 62.41 62.02 61.01 61.46 61.45 61.39 60.74 60.04 59.73 60.27 59.81 59.30 59.15 59.17
63.69 63.37 62.84 62.65 62.28 61.99 61.94 61.39 61.57 60.65 60.36 60.14 60.65 60.06 59.88 59.70 61.07 62.68 62.06 62.07 61.63 59.86 59.35 61.07 61.41 61.87 62.68 63.85 63.24 62.78 62.89 61.40 61.10 61.82 61.63 60.84 60.12 60.65 60.16 59.64 59.47 59.15 58.68
63.73 63.32 62.63 61.93 62.04 61.72 61.38 61.24 60.79 61.82 61.37 60.26 60.83 60.69 60.70 58.83 60.38 61.66 61.54 61.98 60.83 59.06 58.32 58.54 59.63 60.31 60.57 62.46 63.08 62.99 62.92 62.29 61.59 61.44 61.28 61.34 60.58 60.78 60.22 59.86 59.43 59.13 58.92
63.39 63.00 62.65 61.73 61.55 61.41 61.44 61.46 61.73 61.46 60.52 60.51 59.11 59.06 59.56 58.87 59.82 60.80 61.25 60.89 60.12 58.54 58.05 58.28 58.63 60.05 60.31 61.04 62.36 63.05 62.77 62.01 62.51 61.61 61.33 60.86 61.23 61.32 60.91 59.96 59.62 59.41 59.07
63.69 63.31 62.46 61.69 61.15 61.21 61.40 61.87 61.04 59.98 60.16 60.35 57.79 57.51 54.59 55.62 57.55 59.09 59.84 59.81 58.92 58.76 58.11 58.35 58.64 58.58 59.83 59.92 59.73 62.16 62.79 62.53 62.89 62.10 61.79 60.26 61.08 61.30 60.85 60.61 60.20 59.98 59.53
64.06 63.71 62.72 62.70 61.56 62.03 61.54 61.59 60.94 60.34 58.68 59.49 59.80 56.86 53.12 52.01 54.76 56.66 57.29 57.87 57.70 57.47 57.88 57.96 57.81 58.14 57.58 58.12 58.72 59.31 57.99 58.97 61.73 62.51 60.73 61.53 61.47 61.37 61.24 60.76 60.35 60.18 60.09
63.02 63.93 63.82 62.95 62.02 62.39 61.87 61.99 61.43 60.87 60.25 58.23 59.08 59.76 56.68 55.41 53.19 50.75 55.82 56.64 57.20 57.04 56.57 57.01 57.54 57.71 57.48 57.48 57.88 56.61 55.15 54.44 56.78 61.06 62.61 62.63 62.09 61.97 61.67 61.54 61.43 61.02 60.46
63.08 63.34 63.15 62.88 62.61 62.74 62.70 62.27 61.71 61.34 60.86 59.82 58.82 58.54 56.68 55.79 55.74 53.22 52.07 53.73 56.14 56.78 57.13 56.70 57.22 57.49 57.51 57.15 56.38 56.26 54.06 53.26 53.93 57.57 60.76 62.19 62.33 62.43 62.24 62.13 62.11 61.73 61.41
62.68 63.05 62.84 62.39 62.17 62.05 61.53 61.90 61.94 61.37 60.99 60.21 59.85 59.38 58.11 55.20 54.17 53.66 52.81 53.66 54.04 55.67 56.91 56.81 56.80 57.16 57.10 57.10 57.41 55.01 53.03 51.95 52.63 55.07 57.41 59.72 61.40 62.57 62.48 62.39 62.50 62.63 62.41
60.07 61.17 62.19 61.57 61.47 61.75 62.01 61.66 60.81 60.70 60.52 59.79 59.44 59.18 59.32 57.38 56.95 55.86 54.56 53.81 53.15 52.94 54.29 55.99 56.99 57.26 57.22 56.90 57.12 54.21 53.31 50.57 51.24 52.87 54.93 56.33 57.76 59.61 61.05 62.16 62.49 62.76 62.80
60.66 60.24 61.31 61.72 61.66 61.33 60.76 60.24 60.18 60.05 60.32 60.37 59.87 59.97 58.99 57.68 57.15 56.52 55.05 53.60 50.83 52.05 52.62 53.21 55.67 56.57 56.83 56.80 56.32 52.57 55.92 49.93 49.66 50.49 52.00 53.44 54.52 55.60 56.60 58.07 59.48 60.60 61.64
59.87 60.20 61.15 60.68 60.43 60.37 60.07 59.97 59.83 59.67 60.01 60.03 59.78 60.09 58.84 57.85 57.47 56.86 56.06 55.60 53.28 49.95 50.65 52.78 52.82 55.65 56.27 56.50 55.43 55.94 55.85 52.66 49.30 48.71 48.96 50.36 52.18 53.46 53.91 54.58 55.49 56.68 57.69
59.36 59.41 59.33 59.12 58.42 58.24 58.27 58.29 58.41 58.83 58.85 59.29 59.44 58.03 57.88 57.52 57.28 56.78 56.38 55.43 54.84 52.71 49.83 54.23 54.21 54.77 56.19 56.16 55.37 55.94 56.00 52.74 48.74 47.45 47.38 47.77 49.05 50.73 51.56 51.93 52.63 53.42 54.38
58.72 58.52 58.02 57.58 57.62 57.18 57.52 57.43 57.58 58.10 58.17 58.63 58.93 58.39 57.48 57.75 56.94 56.58 56.30 56.20 55.03 54.20 51.73 52.94 54.14 55.12 55.25 55.64 55.63 55.23 55.42 54.72 54.83 47.25 46.68 46.59 46.63 47.25 47.22 47.74 47.49 48.91 49.80
59.11 58.65 57.90 57.24 57.32 56.80 57.40 57.12 56.96 57.47 57.83 57.89 58.43 58.11 57.36 57.38 56.42 56.44 55.88 54.94 55.19 54.96 53.29 51.59 53.28 53.29 54.27 55.53 56.22 56.12 56.56 56.95 56.94 52.12 47.31 47.56 47.07 46.60 45.27 43.57 43.92 44.60 45.33
58.44 58.22 57.80 57.04 57.04 56.92 56.74 57.06 57.04 56.92 57.53 58.04 57.83 57.86 57.32 56.98 56.02 55.80 55.49 54.63 54.50 54.73 54.36 52.60 52.44 54.17 54.33 54.11 54.32 54.76 55.13 55.92 55.59 43.96 41.57 41.39 41.83 42.10 41.97 42.20 42.73 42.91 43.14
58.08 57.72 57.58 57.36 56.66 56.62 56.72 56.70 56.68 56.78 56.84 57.52 58.10 58.04 57.82 57.08 56.68 56.22 55.88 55.44 55.30 54.44 54.31 53.81 53.44 53.01 53.59 53.76 53.77 53.14 52.31 52.58 51.30 43.88 41.01 40.13 40.50 40.92 41.04 41.11 41.12 41.45 41.51
58.01 57.93 57.48 57.18 56.98 56.70 53.91 56.48 56.58 56.30 56.14 55.72 56.00 56.40 57.22 55.64 50.99 53.52 56.26 55.96 55.26 54.48 53.92 53.43 52.84 51.46 51.29 50.69 51.67 52.25 51.95 52.19 47.92 47.13 43.55 41.04 39.59 38.63 38.68 39.12 39.54 39.48 39.12
41.34 46.93 47.07 47.76 45.53 42.30 37.83 39.08 45.97 56.10 55.92 55.40 55.26 55.46 55.60 49.21 48.14 44.52 44.34 46.33 52.21 54.43 53.41 53.19 52.83 51.68 50.96 51.66 51.09 51.76 51.60 50.56 47.16 39.98 40.34 35.10 37.16 35.57 36.54 37.11 37.66 37.65 37.43
34.55 35.42 37.05 39.21 38.26 37.72 38.13 39.42 40.71 49.26 47.98 45.93 46.93 51.65 45.85 43.25 43.70 41.29 36.55 36.12 35.38 34.98 34.86 50.94 52.39 51.07 48.66 45.29 45.55 45.34 46.82 47.89 43.54 35.84 40.18 31.82 33.13 31.77 34.74 36.20 36.22 35.81 35.22
32.84 32.28 32.75 34.19 35.36 35.28 35.66 36.44 36.59 37.72 35.96 35.48 36.08 37.82 39.80 40.13 40.18 39.70 37.22 34.31 33.26 33.10 33.49 34.88 34.90 32.72 32.90 34.71 38.27 40.69 42.36 35.68 33.37 31.96 34.07 30.34 30.97 29.19 31.50 32.42 34.49 34.61 34.03
31.65 31.83 31.91 32.02 32.96 33.52 34.88 34.82 34.87 34.01 32.72 32.16 33.11 34.70 35.57 37.24 37.19 37.89 34.82 31.77 30.77 30.85 32.96 33.19 32.85 32.79 32.61 33.22 35.00 36.95 34.15 34.47 31.57 30.12 30.64 31.98 29.17 27.82 29.30 29.70 32.06 32.84 32.37
30.68 31.30 30.36 31.26 32.04 32.03 33.90 34.40 33.70 32.63 30.76 30.76 31.64 32.18 33.74 34.23 34.01 34.29 33.03 31.32 28.45 28.89 29.69 29.27 28.58 28.65 29.46 29.56 29.26 29.36 32.18 32.84 30.51 29.55 29.42 31.00 29.06 27.92 25.24 29.15 29.55 28.83 27.67
MSLP
1011.56 1011.90 1012.26 1012.75 1013.18 1013.63 1013.87 1014.26 1014.53 1014.85 1015.23 1015.69 1015.93 1016.04 1016.28 1016.66 1016.75 1016.97 1017.19 1017.35 1017.64 1018.24 1018.82 1019.08 1019.40 1019.94 1020.39 1020.73 1020.92 1021.51 1021.98 1022.27 1022.47 1022.94 1023.27 1023.48 1023.69 1023.96 1024.29 1024.63 1024.92 1025.14 1025.34
1011.27 1011.76 1012.22 1012.66 1012.97 1013.44 1013.82 1014.13 1014.61 1015.07 1015.43 1015.76 1016.09 1016.08 1016.37 1016.72 1016.94 1017.07 1017.13 1017.57 1017.85 1018.09 1018.71 1019.11 1019.46 1019.82 1020.25 1020.72 1021.01 1021.60 1022.08 1022.38 1022.62 1023.00 1023.36 1023.71 1023.94 1024.16 1024.40 1024.61 1024.95 1025.24 1025.40
1010.91 1011.50 1011.98 1012.47 1012.78 1013.23 1013.72 1014.21 1014.68 1015.16 1015.67 1015.89 1016.15 1016.20 1016.36 1016.63 1016.88 1017.18 1017.16 1017.69 1018.05 1018.28 1018.71 1019.02 1019.43 1019.80 1020.06 1020.60 1021.03 1021.65 1022.08 1022.38 1022.68 1023.02 1023.37 1023.69 1024.01 1024.31 1024.52 1024.90 1025.10 1025.24 1025.38
1010.66 1011.21 1011.78 1012.17 1012.56 1013.08 1013.48 1014.15 1014.61 1015.14 1015.67 1015.91 1016.14 1016.33 1016.51 1016.60 1016.79 1017.18 1017.23 1017.75 1018.15 1018.38 1018.72 1019.00 1019.34 1019.68 1019.98 1020.49 1020.90 1021.48 1021.97 1022.27 1022.63 1022.91 1023.17 1023.53 1023.89 1024.20 1024.47 1024.73 1025.07 1025.28 1025.40
1010.45 1010.86 1011.54 1011.99 1012.37 1013.03 1013.53 1013.98 1014.41 1014.79 1015.33 1015.78 1016.04 1016.30 1016.55 1016.68 1016.82 1016.95 1017.28 1017.55 1018.01 1018.45 1018.69 1019.00 1019.33 1019.67 1019.92 1020.29 1020.69 1021.27 1021.74 1022.17 1022.54 1022.77 1023.04 1023.38 1023.73 1024.09 1024.38 1024.59 1024.84 1025.18 1025.45
1010.17 1010.64 1011.31 1011.85 1012.17 1012.87 1013.37 1013.82 1014.14 1014.52 1014.87 1015.41 1015.83 1016.17 1016.37 1016.63 1016.72 1016.94 1017.13 1017.29 1017.91 1018.43 1018.67 1019.05 1019.31 1019.63 1019.87 1020.10 1020.54 1021.08 1021.48 1021.89 1022.31 1022.55 1022.84 1023.15 1023.44 1023.88 1024.34 1024.58 1024.74 1024.94 1025.11
1009.69 1010.39 1010.97 1011.58 1012.06 1012.48 1012.89 1013.43 1013.87 1014.21 1014.63 1015.05 1015.68 1016.07 1016.08 1016.43 1016.54 1016.80 1016.98 1017.13 1017.68 1018.26 1018.65 1019.01 1019.32 1019.52 1019.74 1019.98 1020.38 1020.68 1021.11 1021.55 1021.98 1022.26 1022.59 1022.82 1023.13 1023.61 1023.93 1024.37 1024.64 1024.80 1024.95
1009.07 1009.79 1010.38 1011.06 1011.68 1012.24 1012.66 1013.01 1013.50 1013.90 1014.29 1014.75 1015.17 1015.59 1015.87 1016.52 1016.40 1016.41 1016.97 1017.08 1017.39 1018.00 1018.43 1018.84 1019.17 1019.36 1019.46 1019.80 1020.11 1020.39 1020.73 1021.11 1021.51 1021.86 1022.12 1022.53 1022.88 1023.28 1023.62 1023.80 1024.04 1024.31 1024.54
1008.75 1009.22 1009.82 1010.43 1011.12 1011.67 1012.07 1012.47 1012.98 1013.36 1013.58 1014.16 1014.48 1014.72 1015.21 1015.52 1015.97 1016.36 1016.69 1016.95 1017.21 1017.86 1017.98 1018.56 1018.86 1019.06 1019.34 1019.51 1019.86 1020.10 1020.48 1020.84 1021.06 1021.37 1021.68 1022.09 1022.47 1022.78 1023.14 1023.46 1023.67 1023.90 1024.07
1008.56 1008.79 1009.38 1009.93 1010.51 1011.08 1011.48 1011.89 1012.35 1012.68 1013.01 1013.40 1014.03 1013.89 1014.04 1014.17 1015.19 1016.14 1016.50 1016.75 1016.94 1017.50 1017.83 1018.19 1018.43 1018.73 1019.02 1019.29 1019.53 1019.76 1020.09 1020.44 1020.72 1020.98 1021.18 1021.49 1021.88 1022.24 1022.57 1022.88 1023.10 1023.21 1023.50
1008.08 1008.53 1009.00 1009.51 1009.92 1010.42 1010.86 1011.29 1011.74 1012.08 1012.30 1012.60 1012.86 1013.19 1013.72 1013.87 1014.01 1014.27 1015.35 1016.20 1016.76 1017.00 1017.32 1017.71 1017.88 1018.12 1018.58 1018.89 1019.29 1019.46 1019.69 1020.05 1020.38 1020.61 1020.82 1021.04 1021.27 1021.60 1021.95 1022.22 1022.43 1022.65 1022.79
1007.54 1007.92 1008.32 1008.78 1009.21 1009.72 1010.14 1010.53 1011.00 1011.33 1011.57 1011.94 1012.09 1012.19 1012.31 1012.88 1013.04 1013.27 1014.08 1015.32 1015.52 1016.04 1016.54 1016.98 1017.49 1017.55 1017.88 1018.32 1018.56 1018.85 1019.18 1019.55 1019.86 1020.12 1020.45 1020.56 1020.82 1021.05 1021.28 1021.54 1021.70 1021.86 1021.95
1006.89 1006.98 1007.44 1008.11 1008.55 1008.99 1009.37 1009.74 1010.12 1010.56 1010.92 1011.07 1011.24 1011.34 1011.43 1011.69 1012.03 1012.29 1012.94 1014.39 1014.85 1015.73 1016.16 1016.40 1016.57 1016.78 1017.18 1017.61 1017.85 1018.22 1018.59 1018.92 1019.21 1019.46 1019.77 1020.03 1020.30 1020.54 1020.71 1020.86 1021.05 1021.20 1021.31
1005.70 1006.22 1006.85 1007.38 1007.83 1008.21 1008.72 1009.07 1009.45 1009.81 1010.14 1010.32 1010.40 1010.40 1010.41 1011.09 1011.33 1011.72 1012.03 1013.18 1014.57 1015.11 1015.23 1015.35 1015.84 1016.14 1016.47 1016.73 1016.99 1017.39 1017.75 1018.06 1018.44 1018.77 1019.08 1019.40 1019.72 1019.93 1020.12 1020.27 1020.40 1020.55 1020.68
1005.34 1005.79 1006.29 1006.75 1007.15 1007.58 1008.06 1008.44 1008.95 1009.30 1009.59 1009.56 1009.49 1009.79 1009.62 1009.88 1010.76 1011.14 1011.50 1012.08 1012.96 1014.09 1014.43 1014.78 1015.36 1015.37 1015.60 1016.01 1016.19 1016.68 1016.97 1017.12 1017.57 1018.00 1018.36 1018.67 1018.96 1019.24 1019.46 1019.60 1019.77 1019.83 1019.92
1004.86 1005.38 1005.95 1006.14 1006.64 1007.04 1007.52 1008.18 1008.61 1008.79 1008.99 1009.05 1009.18 1009.17 1009.20 1009.50 1010.07 1010.90 1011.43 1011.72 1012.46 1013.30 1014.02 1014.12 1014.42 1014.56 1014.75 1015.17 1015.43 1015.86 1016.09 1016.39 1016.79 1017.20 1017.61 1017.95 1018.22 1018.43 1018.69 1018.84 1018.95 1019.14 1019.38
1004.31 1004.94 1005.33 1005.62 1006.07 1006.57 1007.11 1007.76 1008.19 1008.31 1008.45 1008.47 1008.56 1008.42 1008.62 1009.24 1009.98 1010.44 1011.21 1011.79 1012.57 1013.16 1013.60 1013.91 1013.85 1014.08 1014.38 1014.70 1014.98 1015.41 1015.68 1016.07 1016.21 1016.51 1016.88 1017.24 1017.54 1018.08 1018.54 1018.87 1018.91 1019.08 1019.18
1003.84 1004.39 1004.86 1005.22 1005.70 1006.19 1006.72 1007.22 1007.65 1007.83 1007.84 1007.96 1008.10 1008.19 1008.39 1008.65 1009.42 1010.08 1010.77 1011.45 1012.17 1012.64 1013.11 1013.57 1013.73 1014.03 1014.03 1014.23 1014.60 1015.05 1015.15 1015.34 1015.57 1015.82 1016.76 1017.13 1017.40 1017.80 1018.13 1018.30 1018.58 1018.62 1018.74
1003.50 1004.09 1004.48 1004.80 1005.23 1005.63 1006.16 1006.74 1007.10 1007.33 1007.43 1007.56 1007.61 1007.64 1008.01 1008.54 1009.05 1009.69 1010.31 1011.07 1011.78 1012.24 1012.73 1013.35 1013.49 1013.56 1013.70 1014.10 1014.68 1014.44 1014.69 1015.12 1015.82 1016.98 1017.21 1017.71 1017.94 1018.28 1018.55 1018.62 1018.68 1018.70 1018.60
1003.25 1003.51 1003.76 1004.47 1004.99 1005.34 1005.84 1006.41 1006.72 1006.95 1007.05 1007.16 1007.43 1007.18 1007.50 1007.98 1008.48 1009.18 1009.83 1010.46 1011.17 1011.90 1012.54 1012.98 1013.33 1013.66 1013.86 1014.04 1014.11 1014.33 1014.57 1014.83 1015.92 1017.01 1017.73 1018.20 1018.40 1018.67 1018.94 1018.92 1019.08 1019.23 1019.39
1002.90 1003.03 1003.51 1004.39 1004.62 1005.09 1005.64 1006.03 1006.39 1006.69 1006.83 1007.00 1007.36 1007.42 1007.31 1007.57 1008.11 1008.85 1009.47 1010.12 1010.76 1011.43 1011.97 1012.36 1012.82 1013.36 1013.54 1013.81 1013.75 1013.75 1014.17 1014.81 1016.09 1016.72 1017.66 1018.40 1018.82 1019.32 1019.57 1019.64 1019.62 1019.50 1019.69
1005.44 1004.29 1004.06 1005.10 1005.18 1006.20 1006.52 1006.39 1006.38 1006.37 1006.60 1007.00 1007.45 1007.49 1007.73 1007.97 1008.25 1008.72 1009.29 1009.70 1010.05 1010.63 1011.17 1011.67 1012.07 1012.43 1012.81 1013.04 1013.25 1013.51 1014.00 1015.02 1016.42 1016.98 1017.61 1019.00 1019.28 1019.62 1019.95 1020.04 1019.95 1019.84 1020.03
1007.62 1007.11 1006.47 1006.85 1006.88 1007.21 1006.99 1006.67 1006.70 1006.74 1006.89 1007.36 1007.71 1007.85 1008.17 1008.52 1008.87 1009.50 1010.06 1010.48 1010.89 1010.87 1010.98 1011.25 1011.62 1012.09 1012.58 1012.75 1013.23 1013.55 1014.00 1014.62 1015.84 1017.22 1017.40 1019.17 1019.69 1020.28 1020.08 1020.55 1020.57 1020.75 1020.66
1009.75 1008.33 1008.94 1008.69 1008.39 1008.50 1007.84 1007.64 1007.34 1007.92 1008.35 1008.72 1008.94 1008.96 1008.96 1009.22 1009.42 1009.73 1010.56 1011.26 1011.79 1012.06 1012.24 1012.10 1012.30 1013.24 1013.53 1013.57 1013.82 1013.95 1014.18 1015.43 1016.70 1017.44 1017.50 1018.87 1020.12 1020.44 1021.03 1021.09 1021.04 1021.08 1021.09
1010.30 1010.90 1010.61 1010.41 1010.28 1009.52 1009.34 1009.11 1008.39 1008.71 1009.42 1009.91 1010.25 1010.02 1010.02 1010.08 1010.12 1010.14 1010.80 1011.73 1012.53 1013.39 1013.55 1013.59 1013.82 1014.10 1014.27 1014.25 1014.43 1014.60 1015.03 1015.76 1016.85 1017.68 1017.90 1018.44 1020.01 1020.79 1021.35 1021.39 1021.44 1021.68 1021.64
1012.99 1012.72 1011.80 1011.45 1010.97 1011.08 1010.73 1011.05 1009.69 1009.67 1010.25 1010.50 1010.80 1011.09 1010.93 1010.92 1011.02 1011.44 1011.56 1012.22 1012.77 1013.50 1013.57 1014.14 1014.82 1015.10 1015.01 1015.11 1015.10 1015.18 1015.48 1016.15 1016.75 1017.93 1018.27 1018.49 1019.17 1019.82 1020.99 1021.39 1021.83 1021.97 1021.78
Wind_Speed
7 8 7 6 6 4 4 4 4 4 4 5 3 4 5 5 4 3 2 9 15 15 17 17 18 17 17 15 16 15 14 14 15 14 13 11 11 12 12 11 10 10 9
7 8 8 7 7 6 4 4 5 4 4 4 4 4 4 4 4 4 4 4 9 13 16 16 16 17 19 17 17 15 15 14 15 14 13 11 12 12 11 11 11 10 9
9 9 8 8 8 5 6 4 4 3 3 3 4 4 4 5 4 4 5 3 5 10 11 14 15 17 17 18 17 16 16 15 14 14 14 13 12 12 11 11 10 10 10
10 8 7 7 6 5 6 5 6 5 5 4 3 3 3 4 6 6 7 5 4 5 8 12 14 15 17 18 17 18 16 14 14 15 15 13 13 13 13 12 11 10 10
10 9 7 6 7 6 6 6 6 5 5 5 4 3 4 4 6 7 8 8 5 4 4 9 12 13 14 18 17 17 17 16 15 15 15 15 14 14 14 13 13 11 10
10 8 6 7 8 7 6 6 7 7 6 7 5 5 5 4 5 6 8 7 6 5 5 5 6 7 12 16 16 17 17 17 17 16 16 15 16 15 14 13 13 13 13
11 10 7 7 7 9 9 9 7 7 5 4 3 3 3 5 7 6 6 6 6 6 5 4 4 4 7 14 17 19 18 18 19 18 17 16 15 13 15 14 13 13 13
11 11 10 8 9 7 8 10 9 5 5 7 4 3 3 1 3 6 5 6 7 6 6 6 5 5 7 7 9 17 16 18 19 19 18 17 15 15 15 16 16 15 15
10 11 11 10 9 9 9 10 10 10 7 6 9 4 3 4 3 2 6 6 7 6 6 7 7 7 6 6 7 11 13 14 16 18 18 16 16 17 17 17 16 16 16
10 11 12 11 10 8 9 9 9 10 9 8 7 8 3 5 4 3 3 6 6 7 8 6 7 7 6 6 9 10 12 14 13 14 16 18 18 18 18 18 18 18 18
11 11 12 12 11 9 10 10 10 10 9 8 8 6 4 3 4 4 6 5 5 6 7 8 8 8 7 7 5 7 13 14 14 14 15 15 19 19 19 20 19 18 18
9 12 11 11 11 11 10 10 10 12 11 10 9 10 10 7 7 5 5 10 10 7 8 8 8 8 7 8 9 13 14 15 16 16 15 15 15 17 19 19 20 21 21
8 11 13 11 10 10 11 10 10 10 10 11 13 11 10 10 7 8 6 9 7 3 5 6 8 7 7 7 9 14 15 16 18 17 18 17 16 16 17 17 19 21 21
10 8 12 12 12 11 10 9 7 8 10 10 15 13 10 10 8 9 8 11 4 5 3 4 7 7 8 9 11 16 11 17 18 18 17 17 16 16 16 17 18 18 19
6 9 12 12 11 11 10 8 7 8 8 9 8 12 12 11 9 6 6 9 7 6 7 4 4 9 8 8 11 11 11 13 18 17 17 17 17 17 17 17 17 19 20
9 11 12 11 11 9 8 7 7 7 8 8 8 10 9 9 9 7 6 4 4 4 4 8 9 5 10 7 8 10 11 12 14 17 16 16 17 17 16 17 18 18 16
11 12 12 11 10 8 8 8 8 9 10 9 9 10 12 11 9 9 6 5 5 4 6 2 2 5 5 6 4 5 5 6 6 15 16 17 15 10 6 6 6 8 9
11 12 11 10 9 9 9 9 9 7 8 10 11 9 10 10 13 11 8 8 7 5 4 4 4 3 5 4 4 5 5 5 6 6 1 4 6 5 3 4 1 4 6
11 10 10 11 11 11 9 8 8 7 7 8 8 11 12 12 11 9 10 10 7 5 5 3 4 1 1 1 4 3 3 4 4 17 19 18 17 15 13 11 10 9 10
11 12 11 10 10 9 9 8 8 8 7 8 8 10 10 15 14 13 10 9 8 7 7 6 5 4 6 4 2 3 3 3 4 8 15 13 14 17 15 14 13 13 12
10 11 8 8 9 8 5 8 8 7 7 6 5 4 7 11 13 12 9 10 9 9 7 8 7 3 4 3 6 3 3 4 3 3 7 5 5 5 6 10 13 14 14
16 9 10 5 8 5 4 2 3 7 7 7 7 6 5 7 7 9 7 8 11 12 11 8 7 7 7 4 3 4 4 4 3 2 4 3 3 5 4 4 13 15 14
15 14 14 11 11 8 6 2 2 3 4 5 4 3 4 3 6 8 12 14 15 13 5 4 7 6 4 5 5 4 3 2 3 2 3 3 2 4 4 5 13 13 13
12 14 15 14 11 10 15 11 13 9 9 9 8 7 4 4 4 9 8 10 11 12 8 6 7 6 5 3 2 2 3 7 6 3 2 4 1 3 2 3 10 10 11
15 11 10 13 13 13 17 13 10 10 10 11 9 9 4 3 8 14 11 12 11 11 16 22 21 19 18 16 5 3 3 3 3 2 2 4 3 3 1 2 3 7 8
10 9 13 14 19 13 21 16 11 8 10 8 10 11 19 10 13 10 9 10 11 7 9 10 8 12 14 14 16 8 2 2 3 2 2 3 4 5 3 1 1 2 3
Wind_Direction
164 167 174 172 180 169 169 163 147 149 145 149 165 160 154 182 174 160 200 182 171 176 175 175 172 174 175 175 161 156 165 165 166 165 166 162 152 158 156 149 144 140 149
163 171 174 180 181 177 163 162 165 162 151 151 177 180 171 170 173 176 156 199 184 173 176 179 182 178 180 179 165 162 172 181 170 171 167 174 171 169 157 157 155 160 156
169 168 176 183 184 172 155 143 135 115 131 144 189 189 177 164 158 188 135 157 190 186 177 178 180 182 185 177 163 169 179 184 174 174 171 174 179 180 171 162 168 171 170
171 167 174 180 166 167 167 168 170 169 195 184 172 194 187 165 167 173 154 164 192 182 184 183 186 188 182 181 177 178 185 187 183 181 179 182 188 185 175 175 183 187 189
175 172 179 176 161 169 178 179 183 184 189 202 194 186 189 171 172 170 173 171 181 181 170 192 190 191 186 181 183 184 191 188 197 196 186 186 196 188 186 188 191 196 203
178 175 176 173 169 176 181 180 186 195 198 205 183 205 189 167 167 178 183 170 179 181 174 181 184 195 186 181 175 190 199 194 199 206 196 196 195 195 201 204 202 205 209
176 180 179 179 179 188 190 188 189 192 194 164 119 200 172 168 170 180 182 167 178 192 175 184 178 191 192 178 188 190 205 205 204 206 204 207 203 202 201 209 215 218 222
179 181 179 184 185 184 189 191 194 189 194 177 156 177 172 211 197 171 180 172 177 187 187 194 186 188 185 192 196 194 211 212 207 211 211 214 209 208 213 211 215 223 229
185 185 185 182 183 187 195 195 194 200 198 188 191 174 168 183 138 151 186 181 165 192 195 199 197 188 190 183 187 199 195 214 219 213 220 212 211 210 215 219 223 229 236
193 194 189 186 185 191 195 196 194 200 188 197 199 229 225 139 174 149 180 187 171 199 198 202 200 194 190 192 198 195 200 211 216 227 220 212 214 215 217 220 223 224 233
195 194 196 197 195 200 205 195 196 199 206 206 204 191 201 198 217 148 167 174 189 200 212 203 201 196 195 193 196 207 207 210 218 224 228 228 221 219 219 222 225 228 231
197 197 192 193 195 201 201 206 201 207 208 215 219 215 203 195 193 167 156 187 190 189 204 197 202 202 194 199 204 208 207 213 217 224 228 228 229 228 227 226 227 228 229
195 199 186 193 196 198 202 199 193 206 217 218 219 220 207 205 191 196 162 181 177 146 191 208 204 203 197 200 209 206 210 213 218 221 224 227 228 228 230 230 232 235 237
208 179 195 196 200 191 192 191 198 212 218 224 223 225 200 196 185 192 165 165 145 188 154 168 197 205 202 205 208 201 215 212 217 220 223 225 226 227 229 231 234 239 243
195 188 195 192 186 187 186 184 207 217 225 238 239 234 210 181 181 186 162 176 169 173 202 185 194 202 206 201 209 208 211 212 214 219 222 224 225 228 229 231 233 237 240
182 188 193 184 183 180 175 190 217 222 231 239 238 199 182 172 166 160 156 126 139 134 183 199 217 186 197 203 201 204 213 212 204 214 219 223 226 228 230 231 235 241 249
186 194 191 183 183 178 177 193 220 226 222 229 213 199 185 175 182 170 153 153 156 157 206 215 198 192 172 194 181 195 195 205 211 211 219 223 229 245 280 289 274 263 258
189 193 192 184 180 183 185 198 211 214 216 222 218 204 192 171 173 171 165 164 162 158 140 168 170 210 181 187 190 189 204 213 220 235 277 217 221 208 163 87 145 231 231
186 186 186 185 185 183 179 192 201 207 217 220 210 195 181 176 171 171 173 172 173 172 174 162 214 195 255 143 206 151 170 202 100 97 84 82 88 90 87 81 76 72 75
190 184 178 184 183 177 183 190 195 205 207 216 215 203 188 190 183 182 175 180 173 181 190 197 201 200 209 204 181 183 198 160 116 81 71 84 84 79 76 76 75 75 84
194 175 163 188 176 174 172 191 191 196 192 179 190 184 189 180 172 178 184 191 184 193 195 201 203 175 174 180 197 182 193 128 71 127 105 90 88 83 73 75 86 86 82
12 13 69 86 82 77 21 26 262 194 192 186 197 190 176 177 171 173 164 178 199 199 202 194 197 201 198 186 156 173 170 151 168 17 105 83 82 86 81 83 80 85 79
22 16 31 35 44 30 12 138 182 54 86 71 52 144 112 79 115 118 92 84 60 47 48 213 201 200 169 161 154 159 151 135 122 106 119 99 87 92 74 79 82 80 74
29 33 28 26 39 28 29 52 82 80 70 58 48 33 63 101 116 127 105 84 68 51 28 50 67 72 54 64 52 26 102 101 82 59 28 112 160 78 58 73 90 91 81
32 22 38 34 23 30 32 32 77 82 74 62 47 40 36 65 119 121 116 107 96 85 74 73 74 75 67 62 60 111 102 117 111 126 15 115 136 104 79 67 52 64 76
50 30 42 39 30 35 29 29 58 71 78 71 57 48 50 72 76 81 107 123 109 111 103 83 58 47 51 54 56 58 50 75 113 110 4 91 143 139 103 72 55 53 69